Race Coverage Navigation

TS # 28 / El Dorado, KS  2019

 


TS STATS
TS Distance 33.99 
Total Distance 1654.13 
Miles To Go 1416.15 
TS Climbing 1605 
Total Climbing
TS  Elevation
TS  Net Elevation 2546 
Map Filename Open Map 
Directions Filename  
Latitude 37.82 
Longitude -96.89 
Google Map  TimeStation Map 


TS Arrival Data
Arr Ord  #/Name Arrival DT Ascending TS Dst Avg This TS Avg Overall
 1 377 - Christoph Strasser  06/15/2019 17:49 33.99  14.89  17.02 
 2 279 - Marko Baloh  06/16/2019 7:41 33.99  13.69  14.9 
 3 288 - Dave Haase  06/16/2019 11:03 33.99  15.81  14.45 
 4 609 - Jakob Olsen  06/16/2019 13:34 33.99  17.14  14.11 
 5 617 - SOLO.kiwi (Craig Harper)  06/16/2019 17:20 33.99  15.45  13.66 
 6 529 - Isa Pulver  06/16/2019 17:52 33.99  15  13.58 
 7 612 - Markus K. Brandl  06/16/2019 22:23 33.99  8.75  13.12 
 8 329 - Peter Oyler  06/16/2019 23:38 33.99  15.69  13.02 
 9 622 - Thomas Odom-Team Kyle Pease Foundation  06/17/2019 0:44 33.99  14.16  12.87 
 10 367 - Daniela Genovesi  06/17/2019 5:59 33.99  7.78  12.36 
 11 416 - Leah Goldstein  06/17/2019 6:36 33.99  5.65  12.3 
 12 623 - Ultra Paka Racing Team (Daniel Polman)  06/17/2019 7:59 33.99  5.22  12.18 
 13 603 - Alan Bradley  06/17/2019 9:42 33.99  12.59  12.05 
 14 615 - Philipp Amhof  06/17/2019 12:50 33.99  6.66  11.77 
 15 604 - Chieko Ozawa  06/17/2019 14:53 33.99  12.99  11.58 
 16 611 - Marcelo Soares " MIXIRICA "  06/17/2019 15:27 33.99  12.83  11.56 
 17 568 - Alexandra Meixner  06/17/2019 15:28 33.99  12  11.54 
 18 559 - Team Martin RAAM 2019 (Martin Bergmeister)  06/17/2019 17:40 33.99  9.1  11.39 
 19 411 - Geoff Brunner  06/17/2019 18:40 33.99  12.07  11.32 
 20 442 - Joe Barr  06/17/2019 19:02 33.99  10.1  11.29 
 21 510 - John C. Tarlton  06/17/2019 19:27 33.99  6.64  11.26 
 22 610 - Kabir Rachure  06/17/2019 22:32 33.99  12.07  11.01 
 23 399 - Valerio Zamboni  06/18/2019 4:29 33.99  12.91  10.61 
 24 424 - Team i RON man Veterans supporting Veterans  06/18/2019 10:03 33.99  12.44  10.24 
 25 618 - GREGORY ROBINSON  06/18/2019 10:24 33.99  13.33  10.2 
 26 161 - Seana Hogan  06/18/2019 12:51 33.99  13.6  10.04 
 27 T411 - team alpha - tischlerei groemmer  06/18/2019 15:59 33.99  23.44  22.77 
 28 T800 - Backstedt Racing Project 14  06/18/2019 16:31 33.99  24.28  22.65 
 29 608 - Elin Starup  06/18/2019 17:32 33.99  9.49  9.76 
 30 T404 - Gentlemen of speed  06/18/2019 20:01 33.99  23.18  21.54 
 31 T401 - Data Techniques powered by Networks Centre  06/18/2019 20:07 33.99  20.39  21.5 
 32 605 - Christian Echavarria  06/18/2019 22:32 33.99  9.06  9.5 
 33 T805 - Team Oceanside  06/19/2019 0:28 33.99  26.49  20.45 
 34 T201 - EAT WELL  06/19/2019 0:42 33.99  19.24  20.25 
 35 T807 - Team ZOE International  06/19/2019 1:50 33.99  19.42  20.12 
 36 T407 - Julian Becker   06/19/2019 2:00 33.99  19.06  20 
 37 T802 - Scorchers  06/19/2019 3:58 33.99  21.47  19.59 
 38 T416 - Team Rotary Raams Polio  06/19/2019 4:49 33.99  19.42  19.37 
 39 T412 - Team Aspect  06/19/2019 5:09 33.99  14.06  19.28 
 40 T804 - Team FSHD Skyland Trail  06/19/2019 5:57 33.99  17.58  19.15 
 41 T408 - Radeln-fuer-Kinder (Cycling-for-Kids)  06/19/2019 6:03 33.99  20.6  19.07 
 42 T400 - Cantastic4  06/19/2019 6:57 33.99  20.81  18.84 
 43 T406 - Operation Walk Midwest  06/19/2019 7:58 33.99  17.89  18.65 
 44 T808 - Antonia's Friends 2019  06/19/2019 8:04 33.99  19.24  18.7 
 45 T418 - The Opportunists  06/19/2019 10:49 33.99  19.42  18.11 
 46 T410 - Soap-Aid  06/19/2019 12:54 33.99  25.49  17.68 
 47 T414 - Brazil Nuts  06/19/2019 14:07 33.99  20.6  17.46 
 48 T202 - Integra Medical - BAA Racing  06/19/2019 15:16 33.99  16.58  17.19 
 49 T405 - High Rollers  06/19/2019 15:29 33.99  28.33  17.19 
 50 T803 - Team EndoPark  06/19/2019 15:55 33.99  19.06  17.16 
 51 T403 - EKJ Denmark  06/19/2019 16:47 33.99  19.06  16.95 
 52 T415 - TEAM FIRE VELO 935  06/19/2019 16:47 33.99  18.05  16.99 
 53 T206 - Project Linear Acceleration  06/19/2019 16:49 33.99  19.61  16.93 
 54 T204 - Lucan CRC  06/19/2019 18:00 33.99  17.89  16.72 
 55 T413 - TEAM BRASIL - SKIPPER  06/19/2019 18:47 33.99  17.89  16.64 
 56 T402 - EA/WFP RAAM Team  06/19/2019 19:12 33.99  19.8  16.54 
 57 T806 - Team SuperMarrow  06/19/2019 20:01 33.99  22.17  16.47 
 58 T801 - Mind Over Matter  06/19/2019 20:38 33.99  19.06  16.36 
 59 T417 - Team4RAAM 2019 powered by TGW Living Logistics  06/19/2019 22:21 33.99  17.14  16.08 
 60 T200 - AIR RELAX GoPro TEAM BRASIL  06/19/2019 23:03 33.99  18.54  15.9 
 61 T409 - Serpentine Golden Girls  06/20/2019 6:22 33.99  14.89  14.9 
 62 T203 - JPsDuo  06/20/2019 9:05 33.99  15.69  14.51 
 63 T207 - Team Life Time  06/20/2019 11:51 33.99  3.82  14.17 
 64 T210 - Bike Wine Team  06/20/2019 14:53 33.99  12.14  13.82 
 65 T205 - Prevent Breast Cancer powered by Endomag  06/20/2019 15:12 33.99  16.19  13.77